When you browse on this site, cookies collect data to enhance your experience and personalize the content and advertising you see.
Visit our Privacy Policy to learn more. By continuing to use the site, you agree to this use of cookies and data.
  • In Hungary
  • List of Countries
  • For 7 days
  • Water Temperature
  • Weather Map
  • News
  • Weather Widgets
  • user-avatar
    Login

    Hourly Weather Kosolapovo

    Today, 28 February, Friday

    Time Temperature Precipitation Wind Pressure Humidity
    00:00 -1°C° 0.1 mm 4 mps 739 mmHg 98%
    01:00 -1°C° 0 mm 4 mps 739 mmHg 98%
    02:00 -2°C° 0 mm 4 mps 738 mmHg 97%
    03:00 -2°C° 0 mm 4 mps 738 mmHg 95%
    04:00 -2°C° 0.3 mm 4 mps 737 mmHg 96%
    05:00 -2°C° 0.3 mm 4 mps 737 mmHg 97%
    06:00 -2°C° 0.3 mm 4 mps 737 mmHg 98%
    07:00 -1°C° 0.6 mm 4 mps 737 mmHg 98%
    08:00 -1°C° 0.6 mm 4 mps 737 mmHg 99%
    09:00 0°C° 0 mm 5 mps 737 mmHg 99%
    10:00 0°C° 0.1 mm 5 mps 737 mmHg 99%
    11:00 0°C° 0.1 mm 5 mps 737 mmHg 99%
    12:00 +1°C° 0.1 mm 5 mps 738 mmHg 100%
    13:00 +1°C° 0 mm 4 mps 738 mmHg 99%
    14:00 +1°C° 0 mm 4 mps 738 mmHg 99%
    15:00 +2°C° 0 mm 3 mps 739 mmHg 99%
    16:00 0°C° 0.3 mm 4 mps 738 mmHg 99%
    17:00 0°C° 0.3 mm 5 mps 738 mmHg 99%
    18:00 -1°C° 0.3 mm 6 mps 738 mmHg 99%
    19:00 -1°C° 0.6 mm 6 mps 737 mmHg 99%
    20:00 0°C° 0.6 mm 7 mps 737 mmHg 98%
    21:00 0°C° 0.6 mm 8 mps 737 mmHg 98%
    22:00 -1°C° 0.7 mm 8 mps 737 mmHg 96%
    23:00 -1°C° 0.7 mm 8 mps 736 mmHg 93%

    Tomorrow, 29 February, Saturday

    Time Temperature Precipitation Wind Pressure Humidity
    00:00 -1°C° 0.7 mm 8 mps 736 mmHg 91%
    01:00 -2°C° 0.3 mm 8 mps 736 mmHg 92%
    02:00 -2°C° 0.3 mm 7 mps 736 mmHg 94%
    03:00 -3°C° 0.3 mm 7 mps 736 mmHg 95%
    04:00 -3°C° 1.7 mm 7 mps 735 mmHg 96%
    05:00 -3°C° 1.7 mm 6 mps 735 mmHg 96%
    06:00 -3°C° 1.7 mm 6 mps 735 mmHg 97%
    07:00 -3°C° 1.2 mm 6 mps 735 mmHg 97%
    08:00 -2°C° 1.2 mm 5 mps 735 mmHg 97%
    09:00 -2°C° 1.2 mm 4 mps 735 mmHg 97%
    10:00 -2°C° 0.4 mm 5 mps 735 mmHg 95%
    11:00 -3°C° 0.4 mm 6 mps 736 mmHg 92%
    12:00 -3°C° 0.4 mm 6 mps 736 mmHg 90%
    13:00 -3°C° 0 mm 6 mps 737 mmHg 88%
    14:00 -3°C° 0 mm 6 mps 738 mmHg 87%
    15:00 -3°C° 0 mm 6 mps 739 mmHg 85%
    16:00 -4°C° 0 mm 5 mps 740 mmHg 86%
    17:00 -4°C° 0 mm 5 mps 740 mmHg 88%
    18:00 -4°C° 0 mm 5 mps 741 mmHg 89%
    19:00 -5°C° 0 mm 5 mps 741 mmHg 90%
    20:00 -5°C° 0 mm 5 mps 742 mmHg 91%
    21:00 -6°C° 0 mm 5 mps 742 mmHg 91%
    22:00 -6°C° 0 mm 5 mps 742 mmHg 91%
    23:00 -6°C° 0 mm 5 mps 743 mmHg 90%

    Day after tomorrow, 1 March, Sunday

    Time Temperature Precipitation Wind Pressure Humidity
    00:00 -6°C° 0 mm 5 mps 743 mmHg 90%
    01:00 -7°C° 0 mm 4 mps 744 mmHg 91%
    02:00 -8°C° 0 mm 4 mps 744 mmHg 92%
    03:00 -8°C° 0 mm 4 mps 745 mmHg 94%
    04:00 -9°C° 0 mm 4 mps 745 mmHg 93%
    05:00 -9°C° 0 mm 4 mps 746 mmHg 93%
    06:00 -9°C° 0 mm 4 mps 746 mmHg 93%
    07:00 -9°C° 0 mm 4 mps 747 mmHg 92%
    08:00 -8°C° 0 mm 4 mps 747 mmHg 91%
    09:00 -8°C° 0 mm 5 mps 748 mmHg 89%
    10:00 -7°C° 0 mm 5 mps 748 mmHg 87%
    11:00 -5°C° 0 mm 4 mps 748 mmHg 85%
    12:00 -4°C° 0 mm 4 mps 749 mmHg 83%
    13:00 -4°C° 0 mm 4 mps 749 mmHg 83%
    14:00 -4°C° 0 mm 3 mps 749 mmHg 84%
    15:00 -4°C° 0 mm 3 mps 749 mmHg 84%
    16:00 -5°C° 0 mm 3 mps 750 mmHg 85%
    17:00 -6°C° 0 mm 3 mps 750 mmHg 86%
    18:00 -7°C° 0 mm 3 mps 750 mmHg 87%
    19:00 -7°C° 0 mm 3 mps 750 mmHg 89%
    20:00 -9°C° 0 mm 4 mps 750 mmHg 91%
    21:00 -9°C° 0 mm 4 mps 751 mmHg 92%
    22:00 -8°C° 0 mm 4 mps 751 mmHg 92%
    23:00 -8°C° 0 mm 5 mps 750 mmHg 92%

    2 March, Monday

    Time Temperature Precipitation Wind Pressure Humidity
    00:00 -8°C° 0 mm 5 mps 750 mmHg 91%
    01:00 -7°C° 0 mm 5 mps 750 mmHg 92%
    02:00 -8°C° 0 mm 6 mps 750 mmHg 93%
    03:00 -8°C° 0 mm 6 mps 750 mmHg 93%
    04:00 -6°C° 0 mm 6 mps 750 mmHg 93%
    05:00 -6°C° 0 mm 6 mps 750 mmHg 92%
    06:00 -5°C° 0 mm 6 mps 749 mmHg 91%
    07:00 -5°C° 0 mm 6 mps 749 mmHg 91%
    08:00 -5°C° 0 mm 6 mps 750 mmHg 90%
    09:00 -4°C° 0 mm 6 mps 750 mmHg 90%
    10:00 -4°C° 0 mm 6 mps 750 mmHg 90%
    11:00 -3°C° 0 mm 6 mps 750 mmHg 91%
    12:00 -2°C° 0 mm 6 mps 749 mmHg 91%
    13:00 -2°C° 0 mm 6 mps 750 mmHg 90%
    14:00 -2°C° 0 mm 6 mps 750 mmHg 90%
    15:00 -2°C° 0 mm 6 mps 750 mmHg 89%
    16:00 -2°C° 0 mm 6 mps 750 mmHg 88%
    17:00 -2°C° 0 mm 6 mps 750 mmHg 88%
    18:00 -2°C° 0 mm 6 mps 750 mmHg 88%
    19:00 -2°C° 0 mm 6 mps 750 mmHg 88%
    20:00 -3°C° 0 mm 6 mps 750 mmHg 88%
    21:00 -3°C° 0 mm 6 mps 750 mmHg 88%
    22:00 -3°C° 0 mm 6 mps 750 mmHg 89%
    23:00 -3°C° 0 mm 6 mps 750 mmHg 90%

    3 March, Tuesday

    Time Temperature Precipitation Wind Pressure Humidity
    00:00 -4°C° 0 mm 6 mps 750 mmHg 90%
    01:00 -3°C° 0.1 mm 6 mps 750 mmHg 91%
    02:00 -3°C° 0.1 mm 6 mps 750 mmHg 92%
    03:00 -3°C° 0.1 mm 6 mps 750 mmHg 94%
    04:00 -3°C° 0.1 mm 6 mps 750 mmHg 94%
    05:00 -2°C° 0.1 mm 5 mps 750 mmHg 94%
    06:00 -2°C° 0.1 mm 5 mps 751 mmHg 94%
    07:00 -2°C° 0 mm 5 mps 751 mmHg 94%
    08:00 -2°C° 0 mm 5 mps 751 mmHg 94%
    09:00 -2°C° 0 mm 5 mps 751 mmHg 94%
    10:00 -1°C° 0 mm 5 mps 751 mmHg 96%
    11:00 -1°C° 0 mm 5 mps 751 mmHg 97%
    12:00 -1°C° 0 mm 4 mps 750 mmHg 99%
    13:00 -1°C° 0 mm 5 mps 750 mmHg 98%
    14:00 -1°C° 0 mm 5 mps 750 mmHg 96%
    15:00 -1°C° 0 mm 5 mps 749 mmHg 94%
    16:00 -1°C° 0 mm 5 mps 749 mmHg 93%
    17:00 -1°C° 0 mm 5 mps 748 mmHg 91%
    18:00 -2°C° 0 mm 5 mps 748 mmHg 89%
    19:00 -3°C° 0 mm 6 mps 747 mmHg 89%
    20:00 -3°C° 0 mm 6 mps 747 mmHg 90%
    21:00 -3°C° 0 mm 6 mps 747 mmHg 90%
    22:00 -3°C° 0.1 mm 6 mps 746 mmHg 91%
    23:00 -4°C° 0.1 mm 6 mps 745 mmHg 93%

    4 March, Wednesday

    Time Temperature Precipitation Wind Pressure Humidity
    00:00 -4°C° 0.1 mm 6 mps 745 mmHg 94%
    01:00 -4°C° 0.2 mm 6 mps 744 mmHg 94%
    02:00 -4°C° 0.2 mm 6 mps 744 mmHg 94%
    03:00 -4°C° 0.2 mm 6 mps 743 mmHg 95%
    04:00 -4°C° 0.1 mm 5 mps 743 mmHg 95%
    05:00 -4°C° 0.1 mm 5 mps 742 mmHg 96%
    06:00 -3°C° 0.1 mm 4 mps 742 mmHg 96%
    07:00 -2°C° 0.1 mm 5 mps 742 mmHg 97%
    08:00 -3°C° 0.1 mm 6 mps 742 mmHg 98%
    09:00 -2°C° 0.1 mm 6 mps 742 mmHg 99%
    10:00 -2°C° 0.2 mm 6 mps 742 mmHg 99%
    11:00 -2°C° 0.2 mm 6 mps 743 mmHg 99%
    12:00 -2°C° 0.2 mm 6 mps 743 mmHg 99%
    13:00 -3°C° 0 mm 6 mps 744 mmHg 96%
    14:00 -4°C° 0 mm 6 mps 745 mmHg 93%
    15:00 -5°C° 0 mm 6 mps 746 mmHg 90%
    16:00 -6°C° 0 mm 5 mps 746 mmHg 89%
    17:00 -7°C° 0 mm 4 mps 747 mmHg 88%
    18:00 -7°C° 0 mm 3 mps 748 mmHg 87%
    19:00 -8°C° 0 mm 3 mps 749 mmHg 88%
    20:00 -8°C° 0 mm 3 mps 750 mmHg 89%
    21:00 -9°C° 0 mm 3 mps 750 mmHg 90%
    22:00 -10°C° 0 mm 3 mps 751 mmHg 91%
    23:00 -10°C° 0 mm 3 mps 752 mmHg 91%
    Show more